This is the latest recevied weather packets stored in our database for station/object KB4KY. If no packets are shown the sender has not sent any weather packets the latest 10 day(s).
| Time | Temp. | Humidity | Pressure | Rain* | Wind** | Luminosity | Snow |
|---|---|---|---|---|---|---|---|
| 1778083124 | 14.44° C | 75% | 1013.2 hPa | 0 mm | - | - | - |
| 1778082825 | 14.44° C | 69% | 1013 hPa | 0 mm | - | - | - |
| 1778082524 | 14.44° C | 73% | 1012.7 hPa | 0 mm | - | - | - |
| 1778082258 | 14.44° C | 72% | 1012.8 hPa | 0 mm | - | - | - |
| 1778082223 | 14.44° C | 72% | 1012.8 hPa | 0 mm | - | - | - |
| 1778081959 | 15° C | 70% | 1012.7 hPa | 0 mm | - | - | - |
| 1778081923 | 15° C | 70% | 1012.7 hPa | 0 mm | - | - | - |
| 1778081656 | 15° C | 72% | 1012.8 hPa | 0 mm | - | - | - |
| 1778081623 | 15° C | 72% | 1012.8 hPa | 0 mm | - | - | - |
| 1778081325 | 14.44° C | 71% | 1012.8 hPa | 0 mm | - | - | - |
| 1778081057 | 14.44° C | 72% | 1012.8 hPa | 0 mm | - | - | - |
| 1778081022 | 14.44° C | 72% | 1012.8 hPa | 0 mm | - | - | - |
| 1778080759 | 13.89° C | 72% | 1012.7 hPa | 0 mm | - | - | - |
| 1778080724 | 13.89° C | 72% | 1012.7 hPa | 0 mm | - | - | - |
| 1778080461 | 13.89° C | 73% | 1012.6 hPa | 0 mm | - | - | - |
| 1778080423 | 13.89° C | 73% | 1012.6 hPa | 0 mm | - | - | - |
| 1778080163 | 13.89° C | 73% | 1012.5 hPa | 0 mm | - | - | - |
| 1778080125 | 13.89° C | 73% | 1012.5 hPa | 0 mm | - | - | - |
| 1778079821 | 13.89° C | 75% | 1012.4 hPa | 0 mm | - | - | - |
| 1778079520 | 13.33° C | 77% | 1012.7 hPa | 0 mm | - | - | - |
| 1778079220 | 13.33° C | 76% | 1012.5 hPa | 0 mm | - | - | - |
| 1778078920 | 12.78° C | 79% | 1012.6 hPa | 0 mm | - | - | - |
| 1778078619 | 12.78° C | 79% | 1012.7 hPa | 0 mm | - | - | - |
| 1778078322 | 12.22° C | 81% | 1012.8 hPa | 0 mm | - | - | - |
| 1778078251 | 10.56° C | 84% | 1012.7 hPa | 0 mm | - | - | - |
* Rain latest hour (hover to see other rain measurements)
** Current wind speed in m/s (hover to see current wind gust speed)